WSSS Airport Information

Runway Information
Runway 02C Length 13123 ft width 197 ft
Elevation 15 ft Threshold 0 ft Heading 23
Runway 20C Length 13123 ft Width 197 ft
Elevation 15 ft Threshold 0 ft Heading 203
Runway 02L Length 13123 ft width 197 ft
Elevation 22 ft Threshold 0 ft Heading 23
Runway 20R Length 13123 ft Width 197 ft
Elevation 14 ft Threshold 2429 ft Heading 203
Runway 02R Length 9015 ft width 195 ft
Elevation 0 ft Threshold 0 ft Heading 23
Runway 20L Length 9015 ft Width 195 ft
Elevation 0 ft Threshold 0 ft Heading 203
Airport Frequencies
Type A/D Name APP/DEP Frequency 120.3 MHZ
Type ARR Name ARR Frequency 119.3 MHZ
Type ATIS Name ATIS Frequency 128.6 MHZ
Type CLD Name CLNC DEL Frequency 121.65 MHZ
Type GND Name GND Frequency 124.3 MHZ
Type TWR Name TWR Frequency 118.6 MHZ
Airport Navaids
Type NDB Name Bedok Frequency 232 KHZ
Type VOR-DME Name Tekong Frequency 116500 KHZ
Airport Weather Information & NOTAM
ADDS - METARS form results

(2242 UTC 18 June 2019)
Data provider http://aviationweather.gov/metar/data/
 
METAR text: WSSS 182230Z VRB02KT 9999 FEW014 FEW016TCU BKN150 27/25 Q1010 NOSIG
Conditions at: WSSS (SINGAPORE/CHANGI, SG) observed 2230 UTC 18 June 2019
Temperature: 27.0°C (81°F)
Dewpoint: 25.0°C (77°F) [RH = 89%]
Pressure (altimeter): 29.82 inches Hg (1010.0 mb)
Winds: variable direction winds at 2 MPH (2 knots; 1.0 m/s)
Visibility: 6 or more miles (10+ km)
Ceiling: 15000 feet AGL
Clouds: few clouds at 1400 feet AGL
few clouds at 1600 feet AGL
broken clouds at 15000 feet AGL
Weather: no significant weather observed at this time

METAR text: WSSS 182200Z VRB01KT 9999 FEW012 BKN150 27/25 Q1009 NOSIG
Conditions at: WSSS (SINGAPORE/CHANGI, SG) observed 2200 UTC 18 June 2019
Temperature: 27.0°C (81°F)
Dewpoint: 25.0°C (77°F) [RH = 89%]
Pressure (altimeter): 29.79 inches Hg (1009.0 mb)
Winds: variable direction winds at 1 MPH (1 knots; 0.5 m/s)
Visibility: 6 or more miles (10+ km)
Ceiling: 15000 feet AGL
Clouds: few clouds at 1200 feet AGL
broken clouds at 15000 feet AGL
Weather: no significant weather observed at this time

Forecast for: WSSS (SINGAPORE/CHANGI, SG)
Text: TAF WSSS 181700Z 1818/2000 16007KT 9999 FEW015 SCT020
Forecast period: 1800 UTC 18 June 2019 to 0000 UTC 20 June 2019
Forecast type: FROM: standard forecast or significant change
Winds: from the SSE (160 degrees) at 8 MPH (7 knots; 3.6 m/s)
Visibility: 6 or more miles 10+ km)
Ceiling: at least 12,000 feet AGL
Clouds: few clouds at 1500 feet AGL
scattered clouds at 2000 feet AGL
Weather: no significant weather forecast for this period
Text: TEMPO 1901/1905 3000 TSRA FEW012CB BKN015
Forecast period: 0100 to 0500 UTC 19 June 2019
Forecast type: TEMPORARY: The following changes expected for less than half the time period
Visibility: 1.86 miles (2.99 km)
Ceiling: 1500 feet AGL
Clouds: few clouds at 1200 feet AGL
broken clouds at 1500 feet AGL
Weather: TSRA  (rain associated with thunderstorm(s))